Saint Bonnet de Bellac- Haute Vienne - France
Donnes mto: jeudi, 28/06/2012
Date Horaire Temp. E. Hum. E. P.atmo. Pluie Vent Direction Direction Ensoleilleme Solaire P. de rose Temp au vent Rafales
28/06/2012 00:00 23,4 C 78 % 1010,1 hPa 0,0 mm 0,4 km/h (0 Bft) E-NE 67 0 min 0 W/m 19,3 C 23,4 C 3,2 km/h (1 Bft)
28/06/2012 00:10 23,2 C 78 % 1010,0 hPa 0,0 mm 1,4 km/h (1 Bft) E 90 0 min 0 W/m 19,1 C 23,2 C 4,3 km/h (1 Bft)
28/06/2012 00:20 23,0 C 79 % 1010,0 hPa 0,0 mm 0,0 km/h (0 Bft) E 90 0 min 0 W/m 19,2 C 23,0 C 0,0 km/h (0 Bft)
28/06/2012 00:30 22,8 C 79 % 1009,9 hPa 0,0 mm 0,0 km/h (0 Bft) E 90 0 min 0 W/m 19,0 C 22,8 C 0,0 km/h (0 Bft)
28/06/2012 00:40 22,8 C 80 % 1009,8 hPa 0,0 mm 0,0 km/h (0 Bft) E 90 0 min 0 W/m 19,2 C 22,8 C 0,0 km/h (0 Bft)
28/06/2012 00:50 22,8 C 81 % 1009,8 hPa 0,0 mm 1,4 km/h (1 Bft) E-NE 67 0 min 0 W/m 19,4 C 22,8 C 4,0 km/h (1 Bft)
28/06/2012 01:00 22,6 C 80 % 1009,6 hPa 0,0 mm 0,4 km/h (0 Bft) E-NE 67 0 min 0 W/m 19,0 C 22,6 C 4,0 km/h (1 Bft)
28/06/2012 01:10 22,6 C 80 % 1009,5 hPa 0,0 mm 1,1 km/h (1 Bft) E-SE 112 0 min 0 W/m 19,0 C 22,6 C 1,1 km/h (1 Bft)
28/06/2012 01:20 22,5 C 82 % 1009,5 hPa 0,0 mm 1,1 km/h (1 Bft) E-SE 112 0 min 0 W/m 19,3 C 22,5 C 4,3 km/h (1 Bft)
28/06/2012 01:30 22,4 C 82 % 1009,6 hPa 0,0 mm 3,2 km/h (1 Bft) E-NE 67 0 min 0 W/m 19,2 C 22,4 C 3,2 km/h (1 Bft)
28/06/2012 01:40 22,4 C 83 % 1009,7 hPa 0,0 mm 3,2 km/h (1 Bft) E-SE 112 0 min 0 W/m 19,4 C 22,4 C 6,8 km/h (2 Bft)
28/06/2012 01:50 22,3 C 83 % 1009,5 hPa 0,0 mm 3,6 km/h (1 Bft) E 90 0 min 0 W/m 19,3 C 22,3 C 4,3 km/h (1 Bft)
28/06/2012 02:00 22,1 C 83 % 1009,7 hPa 0,0 mm 4,0 km/h (1 Bft) E 90 0 min 0 W/m 19,1 C 22,1 C 7,2 km/h (2 Bft)
28/06/2012 02:10 22,1 C 84 % 1009,8 hPa 0,0 mm 0,0 km/h (0 Bft) SE 135 0 min 0 W/m 19,3 C 22,1 C 3,6 km/h (1 Bft)
28/06/2012 02:20 22,0 C 84 % 1009,7 hPa 0,0 mm 0,0 km/h (0 Bft) SE 135 0 min 0 W/m 19,2 C 22,0 C 0,0 km/h (0 Bft)
28/06/2012 02:30 21,9 C 84 % 1010,0 hPa 0,0 mm 0,0 km/h (0 Bft) SE 135 0 min 0 W/m 19,1 C 21,9 C 0,0 km/h (0 Bft)
28/06/2012 02:40 21,8 C 85 % 1010,0 hPa 0,0 mm 0,0 km/h (0 Bft) SE 135 0 min 0 W/m 19,2 C 21,8 C 0,0 km/h (0 Bft)
28/06/2012 02:50 21,8 C 82 % 1009,9 hPa 0,0 mm 3,2 km/h (1 Bft) SO 225 0 min 0 W/m 18,6 C 21,8 C 7,2 km/h (2 Bft)
28/06/2012 03:02 22,6 C 76 % 1009,7 hPa 0,0 mm 5,8 km/h (2 Bft) SO 225 0 min 0 W/m 18,1 C 22,6 C 12,2 km/h (2 Bft)
28/06/2012 03:10 23,4 C 70 % 1009,7 hPa 0,0 mm 9,0 km/h (2 Bft) S-SO 202 0 min 0 W/m 17,6 C 23,4 C 10,1 km/h (2 Bft)
28/06/2012 03:20 24,1 C 66 % 1009,5 hPa 0,0 mm 9,4 km/h (2 Bft) S-SO 202 0 min 0 W/m 17,3 C 24,1 C 16,6 km/h (3 Bft)
28/06/2012 03:30 24,8 C 63 % 1009,5 hPa 0,0 mm 7,9 km/h (2 Bft) SO 225 0 min 0 W/m 17,3 C 24,8 C 7,9 km/h (2 Bft)
28/06/2012 03:40 24,9 C 62 % 1009,5 hPa 0,0 mm 8,3 km/h (2 Bft) S-SO 202 0 min 0 W/m 17,1 C 24,9 C 8,3 km/h (2 Bft)
28/06/2012 03:50 24,9 C 61 % 1009,4 hPa 0,0 mm 5,8 km/h (2 Bft) SO 225 0 min 0 W/m 16,8 C 24,9 C 9,7 km/h (2 Bft)
28/06/2012 04:00 24,8 C 61 % 1009,3 hPa 0,0 mm 9,0 km/h (2 Bft) S-SO 202 0 min 0 W/m 16,8 C 24,8 C 20,9 km/h (4 Bft)
28/06/2012 04:10 24,6 C 62 % 1009,1 hPa 0,0 mm 6,8 km/h (2 Bft) S 180 0 min 0 W/m 16,8 C 24,6 C 9,4 km/h (2 Bft)
28/06/2012 04:20 24,4 C 63 % 1009,0 hPa 0,0 mm 6,5 km/h (2 Bft) SO 225 0 min 0 W/m 16,9 C 24,4 C 6,5 km/h (2 Bft)
28/06/2012 04:30 24,2 C 63 % 1008,8 hPa 0,0 mm 4,3 km/h (1 Bft) S-SO 202 0 min 0 W/m 16,7 C 24,2 C 9,0 km/h (2 Bft)
28/06/2012 04:40 24,1 C 64 % 1008,6 hPa 0,0 mm 7,2 km/h (2 Bft) SO 225 0 min 0 W/m 16,9 C 24,1 C 9,4 km/h (2 Bft)
28/06/2012 04:50 23,9 C 65 % 1008,4 hPa 0,0 mm 0,0 km/h (0 Bft) S 180 0 min 0 W/m 16,9 C 23,9 C 0,0 km/h (0 Bft)
28/06/2012 05:00 23,6 C 66 % 1008,0 hPa 0,0 mm 2,2 km/h (1 Bft) E-SE 112 0 min 0 W/m 16,9 C 23,6 C 4,0 km/h (1 Bft)
28/06/2012 05:10 23,4 C 66 % 1007,9 hPa 0,0 mm 1,1 km/h (1 Bft) E-SE 112 0 min 0 W/m 16,7 C 23,4 C 1,1 km/h (1 Bft)
28/06/2012 05:20 23,2 C 67 % 1007,9 hPa 0,0 mm 1,1 km/h (1 Bft) E 90 0 min 0 W/m 16,7 C 23,2 C 2,9 km/h (1 Bft)
28/06/2012 05:30 23,1 C 67 % 1008,1 hPa 0,0 mm 3,2 km/h (1 Bft) SE 135 0 min 0 W/m 16,6 C 23,1 C 4,3 km/h (1 Bft)
28/06/2012 05:40 23,0 C 67 % 1008,2 hPa 0,0 mm 2,5 km/h (1 Bft) S-SE 157 0 min 0 W/m 16,5 C 23,0 C 4,3 km/h (1 Bft)
28/06/2012 05:50 22,9 C 68 % 1007,9 hPa 0,0 mm 0,4 km/h (0 Bft) E 90 0 min 0 W/m 16,7 C 22,9 C 4,0 km/h (1 Bft)
28/06/2012 06:00 22,8 C 69 % 1007,8 hPa 0,0 mm 4,0 km/h (1 Bft) E 90 0 min 0 W/m 16,8 C 22,8 C 6,8 km/h (2 Bft)
28/06/2012 06:10 22,6 C 70 % 1007,4 hPa 0,0 mm 4,0 km/h (1 Bft) E-SE 112 0 min 0 W/m 16,8 C 22,6 C 4,0 km/h (1 Bft)
28/06/2012 06:20 22,4 C 70 % 1007,5 hPa 0,0 mm 3,6 km/h (1 Bft) SE 135 0 min 0 W/m 16,7 C 22,4 C 4,0 km/h (1 Bft)
28/06/2012 06:30 22,3 C 71 % 1007,6 hPa 0,0 mm 2,9 km/h (1 Bft) S 180 0 min 0 W/m 16,8 C 22,3 C 7,6 km/h (2 Bft)
28/06/2012 06:40 22,4 C 71 % 1007,4 hPa 0,0 mm 0,4 km/h (0 Bft) SE 135 0 min 0 W/m 16,9 C 22,4 C 4,3 km/h (1 Bft)
28/06/2012 06:50 22,6 C 71 % 1007,8 hPa 0,0 mm 6,5 km/h (2 Bft) S 180 0 min 0 W/m 17,1 C 22,6 C 6,5 km/h (2 Bft)
28/06/2012 07:00 22,8 C 71 % 1007,8 hPa 0,0 mm 9,0 km/h (2 Bft) S 180 0 min 0 W/m 17,3 C 22,8 C 10,4 km/h (2 Bft)
28/06/2012 07:10 22,9 C 71 % 1007,8 hPa 0,0 mm 5,4 km/h (2 Bft) S-SO 202 0 min 0 W/m 17,4 C 22,9 C 5,4 km/h (2 Bft)
28/06/2012 07:20 23,1 C 70 % 1007,8 hPa 0,0 mm 4,7 km/h (1 Bft) S-SO 202 0 min 0 W/m 17,3 C 23,1 C 7,6 km/h (2 Bft)
28/06/2012 07:30 23,1 C 70 % 1008,0 hPa 0,0 mm 5,4 km/h (2 Bft) S-SO 202 0 min 0 W/m 17,3 C 23,1 C 9,4 km/h (2 Bft)
28/06/2012 07:40 23,2 C 70 % 1008,1 hPa 0,0 mm 2,9 km/h (1 Bft) S-SO 202 0 min 0 W/m 17,4 C 23,2 C 6,1 km/h (2 Bft)
28/06/2012 07:50 23,3 C 70 % 1008,2 hPa 0,0 mm 6,8 km/h (2 Bft) S-SO 202 0 min 0 W/m 17,5 C 23,3 C 10,4 km/h (2 Bft)
28/06/2012 08:00 23,4 C 70 % 1008,3 hPa 0,0 mm 2,5 km/h (1 Bft) SO 225 0 min 0 W/m 17,6 C 23,4 C 4,3 km/h (1 Bft)
28/06/2012 08:10 23,3 C 70 % 1008,5 hPa 0,0 mm 2,9 km/h (1 Bft) S-SO 202 0 min 0 W/m 17,5 C 23,3 C 7,2 km/h (2 Bft)
28/06/2012 08:20 23,2 C 71 % 1008,6 hPa 0,0 mm 3,2 km/h (1 Bft) S-SO 202 0 min 0 W/m 17,6 C 23,2 C 4,3 km/h (1 Bft)
28/06/2012 08:30 23,2 C 71 % 1008,5 hPa 0,0 mm 4,3 km/h (1 Bft) S-SO 202 0 min 0 W/m 17,6 C 23,2 C 4,3 km/h (1 Bft)
28/06/2012 08:40 23,3 C 70 % 1008,6 hPa 0,0 mm 4,7 km/h (1 Bft) S-SO 202 0 min 0 W/m 17,5 C 23,3 C 7,9 km/h (2 Bft)
28/06/2012 08:50 23,6 C 70 % 1008,6 hPa 0,0 mm 4,0 km/h (1 Bft) S 180 0 min 0 W/m 17,8 C 23,6 C 4,0 km/h (1 Bft)
28/06/2012 09:00 24,0 C 70 % 1008,7 hPa 0,0 mm 2,9 km/h (1 Bft) SO 225 0 min 0 W/m 18,2 C 24,0 C 7,6 km/h (2 Bft)
28/06/2012 09:10 24,7 C 68 % 1008,8 hPa 0,0 mm 4,7 km/h (1 Bft) S-SO 202 0 min 0 W/m 18,4 C 24,7 C 8,6 km/h (2 Bft)
28/06/2012 09:20 25,4 C 67 % 1008,9 hPa 0,0 mm 5,4 km/h (2 Bft) SO 225 0 min 0 W/m 18,8 C 25,4 C 10,1 km/h (2 Bft)
28/06/2012 09:30 25,8 C 64 % 1008,9 hPa 0,0 mm 10,1 km/h (2 Bft) S 180 0 min 0 W/m 18,5 C 25,8 C 17,3 km/h (3 Bft)
28/06/2012 09:40 25,8 C 64 % 1009,0 hPa 0,0 mm 7,2 km/h (2 Bft) SO 225 0 min 0 W/m 18,5 C 25,8 C 9,4 km/h (2 Bft)
28/06/2012 09:50 25,6 C 65 % 1008,9 hPa 0,0 mm 6,5 km/h (2 Bft) S-SO 202 0 min 0 W/m 18,5 C 25,6 C 8,6 km/h (2 Bft)
28/06/2012 10:00 25,6 C 66 % 1008,9 hPa 0,0 mm 3,6 km/h (1 Bft) O-SO 247 0 min 0 W/m 18,8 C 25,6 C 3,6 km/h (1 Bft)
28/06/2012 10:10 25,9 C 64 % 1008,8 hPa 0,0 mm 7,9 km/h (2 Bft) O-SO 247 0 min 0 W/m 18,6 C 25,9 C 10,1 km/h (2 Bft)
28/06/2012 10:20 26,1 C 64 % 1008,7 hPa 0,0 mm 5,8 km/h (2 Bft) O-SO 247 0 min 0 W/m 18,7 C 26,1 C 11,2 km/h (2 Bft)
28/06/2012 10:30 26,4 C 63 % 1008,6 hPa 0,0 mm 9,7 km/h (2 Bft) SO 225 0 min 0 W/m 18,8 C 26,4 C 13,3 km/h (3 Bft)
28/06/2012 10:40 26,8 C 64 % 1008,6 hPa 0,0 mm 4,0 km/h (1 Bft) S-SO 202 0 min 0 W/m 19,4 C 26,8 C 6,5 km/h (2 Bft)
28/06/2012 10:50 27,3 C 62 % 1008,6 hPa 0,0 mm 8,6 km/h (2 Bft) S 180 0 min 0 W/m 19,4 C 27,3 C 10,4 km/h (2 Bft)
28/06/2012 11:00 27,9 C 60 % 1008,5 hPa 0,0 mm 8,3 km/h (2 Bft) S-SO 202 0 min 0 W/m 19,4 C 27,9 C 12,2 km/h (2 Bft)
28/06/2012 11:10 28,1 C 57 % 1008,7 hPa 0,0 mm 8,6 km/h (2 Bft) SO 225 0 min 0 W/m 18,8 C 28,1 C 11,2 km/h (2 Bft)
28/06/2012 11:20 28,5 C 58 % 1008,7 hPa 0,0 mm 5,8 km/h (2 Bft) SO 225 0 min 0 W/m 19,4 C 28,5 C 7,6 km/h (2 Bft)
28/06/2012 11:30 28,9 C 57 % 1008,7 hPa 0,0 mm 5,8 km/h (2 Bft) O-SO 247 0 min 0 W/m 19,5 C 28,9 C 5,8 km/h (2 Bft)
28/06/2012 11:40 29,3 C 57 % 1008,7 hPa 0,0 mm 8,6 km/h (2 Bft) S-SO 202 0 min 0 W/m 19,9 C 29,3 C 8,6 km/h (2 Bft)
28/06/2012 11:50 29,4 C 57 % 1008,7 hPa 0,0 mm 10,4 km/h (2 Bft) S-SO 202 0 min 0 W/m 20,0 C 29,4 C 16,9 km/h (3 Bft)
28/06/2012 12:00 29,6 C 57 % 1008,7 hPa 0,0 mm 6,1 km/h (2 Bft) S 180 0 min 0 W/m 20,2 C 29,6 C 9,7 km/h (2 Bft)
28/06/2012 12:10 29,8 C 55 % 1008,6 hPa 0,0 mm 11,2 km/h (2 Bft) SO 225 0 min 0 W/m 19,8 C 29,8 C 15,5 km/h (3 Bft)
28/06/2012 12:20 29,8 C 55 % 1008,6 hPa 0,0 mm 16,2 km/h (3 Bft) S-SE 157 0 min 0 W/m 19,8 C 29,8 C 20,9 km/h (4 Bft)
28/06/2012 12:30 29,8 C 55 % 1008,6 hPa 0,0 mm 8,3 km/h (2 Bft) SO 225 0 min 0 W/m 19,8 C 29,8 C 14,8 km/h (3 Bft)
28/06/2012 12:40 30,1 C 55 % 1008,7 hPa 0,0 mm 8,3 km/h (2 Bft) SO 225 0 min 0 W/m 20,0 C 30,1 C 13,7 km/h (3 Bft)
28/06/2012 12:50 30,5 C 53 % 1008,6 hPa 0,0 mm 8,3 km/h (2 Bft) O-SO 247 0 min 0 W/m 19,8 C 30,5 C 10,1 km/h (2 Bft)
28/06/2012 13:00 30,5 C 53 % 1008,7 hPa 0,0 mm 11,5 km/h (2 Bft) SO 225 0 min 0 W/m 19,8 C 30,5 C 21,2 km/h (4 Bft)
28/06/2012 13:10 30,7 C 52 % 1008,6 hPa 0,0 mm 9,7 km/h (2 Bft) O-SO 247 0 min 0 W/m 19,7 C 30,7 C 15,1 km/h (3 Bft)
28/06/2012 13:20 30,8 C 54 % 1008,6 hPa 0,0 mm 7,2 km/h (2 Bft) S-SO 202 0 min 0 W/m 20,4 C 30,8 C 9,7 km/h (2 Bft)
28/06/2012 13:30 31,2 C 53 % 1008,6 hPa 0,0 mm 6,8 km/h (2 Bft) SO 225 0 min 0 W/m 20,5 C 31,2 C 13,7 km/h (3 Bft)
28/06/2012 13:40 31,4 C 50 % 1008,7 hPa 0,0 mm 8,3 km/h (2 Bft) SO 225 0 min 0 W/m 19,7 C 31,4 C 9,7 km/h (2 Bft)
28/06/2012 13:50 31,5 C 50 % 1008,7 hPa 0,0 mm 10,1 km/h (2 Bft) S-SO 202 0 min 0 W/m 19,8 C 31,5 C 15,8 km/h (3 Bft)
28/06/2012 14:00 31,6 C 51 % 1008,6 hPa 0,0 mm 7,6 km/h (2 Bft) S-SO 202 0 min 0 W/m 20,2 C 31,6 C 11,5 km/h (2 Bft)
28/06/2012 14:10 31,7 C 50 % 1008,5 hPa 0,0 mm 10,1 km/h (2 Bft) S-SO 202 0 min 0 W/m 20,0 C 31,7 C 18,0 km/h (3 Bft)
28/06/2012 14:20 31,6 C 50 % 1008,5 hPa 0,0 mm 4,3 km/h (1 Bft) O-SO 247 0 min 0 W/m 19,9 C 31,6 C 8,3 km/h (2 Bft)
28/06/2012 14:30 31,8 C 52 % 1008,5 hPa 0,0 mm 6,5 km/h (2 Bft) SO 225 0 min 0 W/m 20,7 C 31,8 C 10,4 km/h (2 Bft)
28/06/2012 14:40 31,8 C 47 % 1008,4 hPa 0,0 mm 7,9 km/h (2 Bft) S-SO 202 0 min 0 W/m 19,1 C 31,8 C 15,5 km/h (3 Bft)
28/06/2012 14:50 31,8 C 49 % 1008,4 hPa 0,0 mm 3,6 km/h (1 Bft) SO 225 0 min 0 W/m 19,7 C 31,8 C 8,3 km/h (2 Bft)
28/06/2012 15:00 31,9 C 48 % 1008,5 hPa 0,0 mm 3,6 km/h (1 Bft) S-SO 202 0 min 0 W/m 19,5 C 31,9 C 6,8 km/h (2 Bft)
28/06/2012 15:10 31,7 C 48 % 1008,4 hPa 0,0 mm 8,6 km/h (2 Bft) O-SO 247 0 min 0 W/m 19,3 C 31,7 C 12,2 km/h (2 Bft)
28/06/2012 15:20 31,8 C 47 % 1008,5 hPa 0,0 mm 8,6 km/h (2 Bft) N 360 0 min 0 W/m 19,1 C 31,8 C 8,6 km/h (2 Bft)
28/06/2012 15:30 31,5 C 49 % 1008,5 hPa 0,0 mm 7,9 km/h (2 Bft) SO 225 0 min 0 W/m 19,5 C 31,5 C 10,4 km/h (2 Bft)
28/06/2012 15:40 31,5 C 52 % 1008,6 hPa 0,0 mm 4,3 km/h (1 Bft) S-SO 202 0 min 0 W/m 20,4 C 31,5 C 7,2 km/h (2 Bft)
28/06/2012 15:50 31,4 C 50 % 1008,6 hPa 0,0 mm 5,8 km/h (2 Bft) SO 225 0 min 0 W/m 19,7 C 31,4 C 10,8 km/h (2 Bft)
28/06/2012 16:00 31,1 C 52 % 1008,7 hPa 0,0 mm 3,2 km/h (1 Bft) S-SO 202 0 min 0 W/m 20,1 C 31,1 C 4,0 km/h (1 Bft)
28/06/2012 16:10 31,3 C 53 % 1008,8 hPa 0,0 mm 0,7 km/h (0 Bft) O-SO 247 0 min 0 W/m 20,5 C 31,3 C 6,8 km/h (2 Bft)
28/06/2012 16:20 31,1 C 53 % 1008,8 hPa 0,0 mm 2,9 km/h (1 Bft) S-SO 202 0 min 0 W/m 20,4 C 31,1 C 2,9 km/h (1 Bft)
28/06/2012 16:30 30,9 C 54 % 1008,8 hPa 0,0 mm 2,9 km/h (1 Bft) O-SO 247 0 min 0 W/m 20,5 C 30,9 C 4,3 km/h (1 Bft)
28/06/2012 16:40 30,8 C 53 % 1008,8 hPa 0,0 mm 2,5 km/h (1 Bft) O-SO 247 0 min 0 W/m 20,1 C 30,8 C 7,2 km/h (2 Bft)
28/06/2012 16:50 30,8 C 51 % 1008,9 hPa 0,0 mm 4,7 km/h (1 Bft) O-SO 247 0 min 0 W/m 19,5 C 30,8 C 8,3 km/h (2 Bft)
28/06/2012 17:00 30,8 C 52 % 1008,8 hPa 0,0 mm 5,8 km/h (2 Bft) SO 225 0 min 0 W/m 19,8 C 30,8 C 6,8 km/h (2 Bft)
28/06/2012 17:10 30,4 C 53 % 1008,9 hPa 0,0 mm 7,6 km/h (2 Bft) SO 225 0 min 0 W/m 19,7 C 30,4 C 13,3 km/h (3 Bft)
28/06/2012 17:20 30,4 C 53 % 1008,9 hPa 0,0 mm 3,6 km/h (1 Bft) N-NO 337 0 min 0 W/m 19,7 C 30,4 C 7,9 km/h (2 Bft)
28/06/2012 17:30 30,3 C 54 % 1009,0 hPa 0,0 mm 3,2 km/h (1 Bft) SO 225 0 min 0 W/m 19,9 C 30,3 C 6,8 km/h (2 Bft)
28/06/2012 17:40 30,2 C 54 % 1009,0 hPa 0,0 mm 2,2 km/h (1 Bft) O-SO 247 0 min 0 W/m 19,8 C 30,2 C 7,6 km/h (2 Bft)
28/06/2012 17:50 29,9 C 55 % 1009,1 hPa 0,0 mm 6,5 km/h (2 Bft) SO 225 0 min 0 W/m 19,9 C 29,9 C 8,3 km/h (2 Bft)
28/06/2012 18:00 29,6 C 57 % 1009,1 hPa 0,0 mm 7,2 km/h (2 Bft) SO 225 0 min 0 W/m 20,2 C 29,6 C 19,1 km/h (3 Bft)
28/06/2012 18:10 29,2 C 58 % 1009,2 hPa 0,0 mm 4,3 km/h (1 Bft) O 270 0 min 0 W/m 20,1 C 29,2 C 11,2 km/h (2 Bft)
28/06/2012 18:20 28,8 C 60 % 1009,1 hPa 0,0 mm 0,4 km/h (0 Bft) O 270 0 min 0 W/m 20,2 C 28,8 C 4,3 km/h (1 Bft)
28/06/2012 18:30 28,6 C 60 % 1009,2 hPa 0,0 mm 5,0 km/h (1 Bft) O-SO 247 0 min 0 W/m 20,1 C 28,6 C 10,4 km/h (2 Bft)
28/06/2012 18:40 27,9 C 61 % 1009,2 hPa 0,0 mm 1,8 km/h (1 Bft) O 270 0 min 0 W/m 19,7 C 27,9 C 4,0 km/h (1 Bft)
28/06/2012 18:50 27,6 C 62 % 1009,2 hPa 0,0 mm 5,8 km/h (2 Bft) O 270 0 min 0 W/m 19,6 C 27,6 C 10,4 km/h (2 Bft)
28/06/2012 19:00 27,1 C 64 % 1009,2 hPa 0,0 mm 2,2 km/h (1 Bft) O-NO 292 0 min 0 W/m 19,7 C 27,1 C 10,1 km/h (2 Bft)
28/06/2012 19:10 26,9 C 65 % 1009,3 hPa 0,0 mm 6,8 km/h (2 Bft) O 270 0 min 0 W/m 19,7 C 26,9 C 10,8 km/h (2 Bft)
28/06/2012 19:20 26,3 C 66 % 1009,3 hPa 0,0 mm 2,9 km/h (1 Bft) O-SO 247 0 min 0 W/m 19,4 C 26,3 C 9,7 km/h (2 Bft)
28/06/2012 19:30 26,1 C 66 % 1009,3 hPa 0,0 mm 4,3 km/h (1 Bft) O-SO 247 0 min 0 W/m 19,2 C 26,1 C 4,3 km/h (1 Bft)
28/06/2012 19:40 25,6 C 66 % 1009,4 hPa 0,0 mm 2,2 km/h (1 Bft) O-SO 247 0 min 0 W/m 18,8 C 25,6 C 6,8 km/h (2 Bft)
28/06/2012 19:50 25,3 C 67 % 1009,5 hPa 0,0 mm 1,8 km/h (1 Bft) O 270 0 min 0 W/m 18,7 C 25,3 C 8,6 km/h (2 Bft)
28/06/2012 20:00 24,9 C 67 % 1009,7 hPa 0,0 mm 5,4 km/h (2 Bft) O-SO 247 0 min 0 W/m 18,3 C 24,9 C 10,4 km/h (2 Bft)
28/06/2012 20:10 24,3 C 69 % 1009,7 hPa 0,0 mm 1,4 km/h (1 Bft) S-SE 157 0 min 0 W/m 18,2 C 24,3 C 3,2 km/h (1 Bft)
28/06/2012 20:20 23,8 C 71 % 1009,7 hPa 0,0 mm 1,4 km/h (1 Bft) O-SO 247 0 min 0 W/m 18,2 C 23,8 C 6,1 km/h (2 Bft)
28/06/2012 20:30 23,3 C 72 % 1009,7 hPa 0,0 mm 0,4 km/h (0 Bft) O-SO 247 0 min 0 W/m 18,0 C 23,3 C 3,2 km/h (1 Bft)
28/06/2012 20:40 22,9 C 73 % 1009,8 hPa 0,0 mm 1,1 km/h (1 Bft) SO 225 0 min 0 W/m 17,8 C 22,9 C 1,1 km/h (1 Bft)
28/06/2012 20:50 22,6 C 75 % 1009,7 hPa 0,0 mm 1,4 km/h (1 Bft) S 180 0 min 0 W/m 17,9 C 22,6 C 6,5 km/h (2 Bft)
28/06/2012 21:00 22,3 C 75 % 1009,8 hPa 0,0 mm 0,7 km/h (0 Bft) O-SO 247 0 min 0 W/m 17,6 C 22,3 C 3,6 km/h (1 Bft)
28/06/2012 21:10 21,9 C 77 % 1009,8 hPa 0,0 mm 2,5 km/h (1 Bft) O 270 0 min 0 W/m 17,7 C 21,9 C 4,3 km/h (1 Bft)
28/06/2012 21:20 21,6 C 77 % 1009,9 hPa 0,0 mm 2,5 km/h (1 Bft) O 270 0 min 0 W/m 17,4 C 21,6 C 6,8 km/h (2 Bft)
28/06/2012 21:30 21,3 C 78 % 1010,0 hPa 0,0 mm 1,1 km/h (1 Bft) O 270 0 min 0 W/m 17,3 C 21,3 C 1,1 km/h (1 Bft)
28/06/2012 21:40 21,1 C 79 % 1010,0 hPa 0,0 mm 0,7 km/h (0 Bft) O 270 0 min 0 W/m 17,3 C 21,1 C 3,2 km/h (1 Bft)
28/06/2012 21:50 20,8 C 80 % 1010,1 hPa 0,0 mm 6,1 km/h (2 Bft) O 270 0 min 0 W/m 17,2 C 20,8 C 13,3 km/h (3 Bft)
28/06/2012 22:00 20,4 C 80 % 1010,1 hPa 0,0 mm 3,6 km/h (1 Bft) S-SO 202 0 min 0 W/m 16,8 C 20,4 C 4,0 km/h (1 Bft)
28/06/2012 22:10 20,1 C 80 % 1010,2 hPa 0,0 mm 0,0 km/h (0 Bft) S-SO 202 0 min 0 W/m 16,5 C 20,1 C 0,0 km/h (0 Bft)
28/06/2012 22:20 19,9 C 81 % 1010,3 hPa 0,0 mm 0,4 km/h (0 Bft) SO 225 0 min 0 W/m 16,5 C 19,9 C 4,3 km/h (1 Bft)
28/06/2012 22:30 19,7 C 82 % 1010,5 hPa 0,0 mm 1,1 km/h (1 Bft) S-SO 202 0 min 0 W/m 16,5 C 19,7 C 4,3 km/h (1 Bft)
28/06/2012 22:40 19,4 C 84 % 1010,7 hPa 0,0 mm 0,0 km/h (0 Bft) SO 225 0 min 0 W/m 16,6 C 19,4 C 2,9 km/h (1 Bft)
28/06/2012 22:50 19,3 C 84 % 1010,6 hPa 0,0 mm 0,7 km/h (0 Bft) SO 225 0 min 0 W/m 16,5 C 19,3 C 3,6 km/h (1 Bft)
28/06/2012 23:00 19,1 C 85 % 1010,7 hPa 0,0 mm 0,0 km/h (0 Bft) SO 225 0 min 0 W/m 16,5 C 19,1 C 0,0 km/h (0 Bft)
28/06/2012 23:10 18,9 C 85 % 1010,7 hPa 0,0 mm 2,2 km/h (1 Bft) S-SO 202 0 min 0 W/m 16,3 C 18,9 C 4,3 km/h (1 Bft)
_ Min-Heure 23:10 15:20 06:40 - 23:00 - - - - 23:10 23:10 23:00
Minimum _ 18,9 C 47 % 1007,4 hPa - 0,0 km/h (0 Bft) - - - - 16,3 C 18,9 C 0,0 km/h (0 Bft)
_ Max-Heure 15:00 23:10 23:10 23:10 12:20 - - 23:10 23:10 14:30 15:00 13:00
Maximum _ 31,9 C 85 % 1010,7 hPa 0,0 mm 16,2 km/h
S-SE (3 Bft)
- - 0 min 0 W/m 20,7 C 31,9 C 21,2 km/h
SO (4 Bft)
Moyenne _ 25,7 C 66 % 1009,0 hPa #0,0 mm 4,5 km/h (1 Bft) S-SO - #0 min. 0 W/m 18,6 C 25,7 C 7,6 km/h (2 Bft)
Saint Bonnet de Bellac- Haute Vienne - France